C/2007 JA21 (LINEAR)
Epoch 2006 Nov. 1.0 TT = JDT 2454040.5  
T 2006 Nov. 14.37699 TT                                 Nakano
q   5.3681767            (2000.0)            P               Q
z  -0.0004330      Peri.   93.69811     -0.02925522     -0.41331298
 +/-0.0000034      Node    65.52228     -0.44974873     -0.80769435
e   1.0023246      Incl.   89.84036     +0.89267587     -0.42047857
From 169 observations 2007 May 11-2008 Aug. 27, mean residual 0".61.
   (1/a)org.= +0.000051, (1/a)fut.= -0.000023 (+/-0.000003), Q= 7.
Residuals in seconds of arc 
2007/                     070523 213  0.4-  0.3+    070713 A77  0.5-  0.7+  
070511 704  0.3-  0.3+    070523 213  0.3-  0.2+    070713 A77  0.0   1.2+  
070511 704  0.6+  0.1-    070525 118  0.1+  0.4-    070713 A77  0.5-  0.1+  
070511 704  0.3-  1.6-    070525 118  0.3-  0.2+    070713 A77  0.4+  0.5+  
070512 704  0.1-  0.1-    070525 361  0.5+  1.7-    070717 673  0.1+  0.4-  
070512 704  0.1+  0.6+    070530 J95  0.3+  0.8+    070717 673  0.4-  0.5-  
070512 704  0.5+  0.4-    070530 J95  0.0   0.8+    070717 673  1.2-  0.8-  
070512 704  0.1-  0.8-    070530 J95  0.4-  0.3+    070717 673  0.6-  0.7-  
070512 704  0.3-  0.3+    070606 850  0.6+  0.2+    070721 118  1.3-  0.3-  
070512 D35  0.2+  0.2+    070606 850  1.2-  1.0+    070721 118  0.5-  0.4-  
070512 D35  0.3-  1.1-    070607 850  0.7+  0.6+    070726 204  0.4-  0.3-  
070512 D35  0.6+  0.4-    070607 850  0.4-  0.4-    070805 118  0.3+  0.4-  
070512 B03  0.2-  1.0+    070607 850  0.2-  0.7-    070805 118  1.0-  0.0   
070512 B03  0.1-  0.3+    070608 673  0.2+  0.2+    070823 204  0.4-  0.1-  
070512 A74  0.1-  0.5-    070608 673  0.1-  0.7-    070824 204  0.0   1.0+  
070512 B03  0.8-  0.2+    070608 673  0.4+  0.3-    070825 204  0.8-  0.5-  
070512 B03  0.7-  0.4-    070608 673  0.6+  0.2+    070912 215  0.7+  0.3-  
070512 A74  0.3-  0.3-    070610 213  0.8+  0.4+    070920 215 (0.7-  2.2-) 
070512 B03  0.6-  0.5+    070610 213  0.7+  0.3+    2008/                   
070512 A74  0.0   0.4+    070610 213  0.9+  0.3-    080401 461  0.0   0.1+  
070513 704  1.3-  1.0-    070611 349  0.7+  0.7+    080401 461  0.5+  0.3-  
070513 704  0.6+  0.2-    070611 361  1.5+  0.5-    080401 461  0.5+  0.1-  
070513 704  0.1+  0.2+    070611 349  0.8+  0.9+    080404 704  0.4-  0.5+  
070513 704  0.8+  0.3+    070611 349  0.8+  0.5+    080404 704  0.1-  0.9-  
070513 711  0.3-  0.3-    070613 850  0.0   0.2-    080404 704  0.1-  0.7-  
070513 711  1.3+  0.4+    070613 673  0.4+  0.1+    080404 704  0.2-  0.4+  
070513 711  0.1-  0.3-    070613 673  0.0   0.3+    080413 204  0.9+  0.3-  
070513 473  0.1+  0.1+    070613 673  0.1+  0.1+    080413 204  0.6+  0.2-  
070513 473  0.2-  0.1+    070613 673  0.4+  0.0     080506 215  0.0   0.9+  
070513 473  0.0   0.4+    070613 850  1.1+  0.8+    080506 215  0.1+  0.5+  
070514 673  0.0   0.3+    070615 703  0.8+  0.0     080506 215  0.2-  0.1-  
070514 673  0.1-  0.3+    070615 703  1.2+  0.4-    080510 703  1.1-  0.1+  
070514 673  0.1-  0.2+    070615 703  1.2+  0.1-    080510 703  1.8-  0.9-  
070514 673  0.1+  0.1-    070615 703  0.6-  0.3+    080510 703  0.9-  0.7+  
070514 673  0.0   0.3-    070616 213  0.4+  0.1+    080510 703  0.5-  1.0+  
070514 561  0.4+  0.3-    070616 213  0.4+  0.0     080529 B37  0.6+  0.7+  
070514 561  0.7-  1.7-    070616 213  0.4+  0.1+    080529 B37  1.3-  1.1+  
070514 561  0.2-  0.1-    070618 585  0.6-  1.2+    080529 B37  0.6-  0.7+  
070516 213  0.1+  0.3-    070618 585  1.7+  1.0+    080603 J47  0.1+  0.6-  
070516 213  0.0   0.5-    070618 585  0.1-  1.4-    080603 J47  0.1+  0.7-  
070516 213  0.2-  0.6-    070618 585  0.6-  0.2-    080603 J47 (2.2-  1.4-) 
070517 204  0.2-  0.0     070619 A03  0.6-  1.1+    080625 204  0.3+  0.2-  
070518 703  0.9-  0.1-    070619 A03  0.5-  0.6+    080626 204  1.3+  1.1+  
070518 703  0.6-  1.7+    070619 A03  0.2-  0.2-    080627 941  0.5+  0.1+  
070518 703  0.1+  0.6+    070619 A03  0.0   0.6+    080627 941  0.3+  0.0   
070518 703  1.2-  0.6+    070619 A03  0.0   0.2-    080627 941  0.1+  0.3-  
070518 213  0.3-  0.5-    070620 699  1.9+  1.1+    080627 941  0.2-  0.5-  
070518 213  0.2-  0.5-    070620 699  0.9+  0.8+    080710 130  0.9+  0.2+  
070518 213  0.1-  0.5-    070620 699  0.2+  1.1-    080711 941  0.5-  0.2-  
070519 A03  1.4-  0.3+    070620 699  1.8+  0.5+    080711 941  0.4-  0.2-  
070519 A03  0.4-  0.1+    070625 118  0.6-  0.3-    080711 941  0.2-  0.3-  
070519 A03  0.1+  0.0     070625 118  0.5-  0.0     080711 941  0.0   0.7-  
070519 157  0.4+  0.6-    070707 561  0.3-  0.3-    080816 B37 (5.1-  4.1+) 
070519 215  0.4+  0.1-    070707 561  0.3-  0.1-    080816 B37 (5.2-  2.1+) 
070519 215  0.4+  0.1-    070707 561  0.1-  0.5-    080821 204  1.3+  0.5-  
070519 215  0.4+  0.2-    070712 213  0.2-  0.3+    080827 461  0.3+  0.1-  
070521 118  0.1+  0.3+    070712 213  0.1-  0.0     080827 461  0.3+  0.1-  
070521 118  1.8-  0.4+    070712 213  0.1-  0.2-                            
070523 213  0.3-  0.2+    070713 A77  0.9-  1.5-                            

NAKANO
         **** Don't distribute anyone except personal use only ****
                (C) Copyright 2009 OAA/ComputingSection
write mail from CFAD0::NAKANO on 2009-01-06 06:55:26(JST).
 



    C/2007 JA21 (LINEAR)

Epoch 2006 Nov. 1.0 TT = JDT 2454040.5  

T 2006 Nov. 14.38084 TT                                 Nakano

q   5.3681753            (2000.0)            P               Q

z  -0.0004222      Peri.   93.69883     -0.02925917     -0.41331570

 +/-0.0000046      Node    65.52209     -0.44975938     -0.80768741

e   1.0022665      Incl.   89.84045     +0.89267038     -0.42048921

From 152 observations 2007 May 11-2008 June 3, mean residual 0".60.

   (1/a)org.= +0.000062, (1/a)fut.= -0.000012 (+/-0.000005), Q= 7.


NAKANO

         **** Don't distribute anyone except personal use only ****

                (C) Copyright 2008 OAA/ComputingSection

write mail from CFAD0::NAKANO on 2008-07-01 07:43:53(JST).

 

    C/2007 JA21 (LINEAR)

Epoch 2006 Nov. 1.0 TT = JDT 2454040.5  

T 2006 Nov. 14.50591 TT                                 Nakano

q   5.3685097            (2000.0)            P               Q

z  -0.0004346      Peri.   93.71333     -0.02936116     -0.41331455

 +/-0.0000198      Node    65.52171     -0.44996478     -0.80757098

e   1.0023331      Incl.   89.84064     +0.89256351     -0.42071392

From 129 observations 2007 May 11-Aug. 25, mean residual 0".57.

   (1/a)org.= +0.000050, (1/a)fut.= -0.000024 (+/-0.000020), Q= 6.



NAKANO

         **** Don't distribute anyone except personal use only ****

                (C) Copyright 2007 OAA/ComputingSection

write mail from CFAD0::NAKANO on 2007-09-16 02:42:41(JST).

 



    C/2007 JA21 (LINEAR)

Epoch 2006 Nov. 1.0 TT = JDT 2454040.5  

T 2006 Nov. 14.72754 TT                                 Nakano

q   5.3690132            (2000.0)            P               Q

z  -0.0004326      Peri.   93.73932     -0.02954944     -0.41329810

 +/-0.0000314      Node    65.52190     -0.45033075     -0.80736807

e   1.0023227      Incl.   89.84057     +0.89237271     -0.42111932

From 119 observations 2007 May 11-July 26, mean residual 0".54.

   (1/a)org.= +0.000052, (1/a)fut.= -0.000023 (+/-0.000031), Q= 5.



NAKANO

         **** Don't distribute anyone except personal use only ****

                (C) Copyright 2007 OAA/ComputingSection

write mail from CFAD0::NAKANO on 2007-08-13 06:05:09(JST).

 





    C/2007 JA21 (LINEAR)

T 2006 Nov. 13.60672 TT                                 Nakano

q   5.3651008            (2000.0)            P               Q

                   Peri.   93.61359     -0.02883391     -0.41287048

                   Node    65.55202     -0.44847930     -0.80855940

e   1.0            Incl.   89.82663     +0.89332801     -0.41924894

From 99 observations 2007 May 11-June 19.



NAKANO

         **** Don't distribute anyone except personal use only ****

                (C) Copyright 2007 OAA/ComputingSection

write mail from CFAD0::NAKANO on 2007-07-09 03:50:16(JST).

 

C/2007 JA21の軌道と予報位置



 上尾の門田健一氏から,6月11日の観測が報告されました.氏の CCD全光度は,

18.4等でした.この彗星は,洲本の中野主一氏も観測し,5月25日に18.3等,門田

氏と同日の6月11日には18.2等でした.ただし,これらの観測は,かなり???で

しょう.彗星が天頂近くにいて,洲本の空でも比較的良く写る領域なので撮ってい

るだけとのことです.本物かどうか,私も知りません.



    C/2007 JA21 (LINEAR)

T 2006 Nov. 12.08348 TT                                 Nakano

q   5.3618328            (2000.0)            P               Q

                   Peri.   93.43584     -0.02757746     -0.41289799

                   Node    65.55569     -0.44595871     -0.80997180

e   1.0            Incl.   89.82487     +0.89462859     -0.41648642

From 78 observations 2007 May 11-June 11.

 

Date/        TT  R.A.(2000) Decl.     Delta   r     Daily motion  Mag.  Moon Age

              h    h  m       。  ,                      ,  / PA 。  m1      。

2007 June 10 17  16 59.14  +51 25.7   5.226  5.584    14.2 / 241  18.7  100  .26

          11 17  16 57.82  +51 18.7   5.229  5.586    14.3 / 240  18.7  102  .16

          12 17  16 56.50  +51 11.5   5.231  5.588    14.4 / 239  18.7  103  .08

          13 17  16 55.20  +51 04.1   5.234  5.590    14.4 / 238  18.7  102  .03

          14 17  16 53.91  +50 56.4   5.237  5.592    14.5 / 237  18.7  101  .00

          15 17  16 52.62  +50 48.5   5.240  5.594    14.5 / 236  18.7   99  .01

          16 17  16 51.35  +50 40.4   5.243  5.596    14.6 / 235  18.7   97  .03

          17 17  16 50.10  +50 32.1   5.246  5.598    14.6 / 234  18.7   94  .08

          18 17  16 48.85  +50 23.6   5.249  5.601    14.7 / 233  18.7   91  .15

          19 17  16 47.62  +50 14.8   5.253  5.603    14.7 / 233  18.7   88  .23

          20 17  16 46.41  +50 05.8   5.257  5.605    14.8 / 232  18.7   85  .32

          21 17  16 45.20  +49 56.6   5.261  5.607    14.8 / 231  18.7   82  .42

          22 17  16 44.02  +49 47.3   5.265  5.609    14.9 / 230  18.7   79  .51

